Temp
11 11 11 10 10 10 10 10 10 11 12 12 12 12 12 13 12 12 11 11 10 9 9 8 8 8 7 7 8 8 8 8 8 8 7 7 7 7 7 7 7 7 7 6 6 6 6 6 5 5 5 5 4 4 4 4 4 4 3 3 3 3 3 3 2 2 2 2 2
11 11 11 10 10 10 10 10 10 11 12 13 13 13 13 13 12 11 11 10 9 9 8 8 8 7 7 7 7 8 8 8 7 7 7 7 7 7 7 7 7 7 6 6 6 6 6 5 5 5 5 4 4 4 4 4 4 4 3 3 3 3 3 2 2 2 2 2 2
11 11 10 10 10 10 10 10 11 11 12 12 13 13 12 12 12 11 10 9 9 9 8 8 7 7 7 7 7 7 7 7 7 7 7 7 7 7 7 6 6 6 6 6 6 6 5 5 5 5 5 4 4 4 4 4 4 3 3 3 3 3 2 2 2 2 2 2 2
11 11 10 10 10 10 11 11 12 12 12 12 12 12 12 12 11 10 10 9 9 8 8 8 7 7 7 7 7 7 7 7 7 7 7 7 7 6 6 6 6 6 6 6 6 5 5 5 5 5 4 4 4 4 4 4 3 3 3 3 3 3 2 2 2 2 2 2 2
11 11 11 11 11 11 12 12 13 13 12 12 12 12 11 11 10 10 9 8 8 8 8 7 7 7 7 7 7 7 7 7 7 7 7 7 6 6 6 6 6 6 6 6 5 5 5 5 5 4 4 4 4 4 4 4 3 3 3 3 2 2 2 2 2 2 2 2 2
11 11 11 11 11 12 12 13 13 13 12 12 12 11 11 10 10 9 9 8 8 8 7 7 7 7 7 7 7 7 7 7 7 7 6 6 6 6 6 6 6 6 5 5 5 5 5 5 4 4 4 4 4 4 4 3 3 3 3 3 2 2 2 2 2 2 2 1 1
11 11 11 11 11 12 13 13 13 12 12 12 11 11 10 10 9 9 8 8 8 7 7 7 7 7 7 7 7 7 7 7 6 6 6 6 6 6 6 6 6 5 5 5 5 5 4 4 4 4 4 4 4 4 3 3 3 3 3 2 2 2 2 2 2 1 1 1 1
11 11 11 11 12 13 13 13 12 12 12 11 11 11 10 9 9 9 8 8 7 7 7 7 7 7 7 7 7 7 7 6 6 6 6 6 6 6 6 6 5 5 5 5 5 5 4 4 4 4 4 4 3 3 3 3 3 3 2 2 2 2 2 2 1 1 1 1 1
10 10 11 11 12 12 12 12 12 12 12 11 11 10 10 9 9 8 8 7 7 7 7 6 6 6 7 7 7 6 6 6 6 6 6 6 6 6 6 6 5 5 5 5 5 4 4 4 4 4 4 4 3 3 3 3 3 2 2 2 2 2 2 1 1 1 1 1 1
10 10 11 11 12 12 12 12 12 12 11 11 10 10 9 9 8 8 8 7 7 6 6 6 6 6 6 6 6 6 6 6 6 6 6 6 6 6 6 5 5 5 5 5 4 4 4 4 4 4 3 3 3 3 3 3 2 2 2 2 2 2 1 1 1 1 1 1 1
10 11 11 11 11 11 11 11 11 11 11 10 9 9 9 8 8 8 7 7 6 6 6 6 6 6 6 6 6 6 6 6 6 6 6 6 6 5 5 5 5 5 5 4 4 4 4 4 4 3 3 3 3 3 3 2 2 2 2 2 1 1 1 1 1 1 1 0 0
10 11 11 11 11 11 11 11 10 10 10 9 9 8 8 8 7 7 7 6 6 6 6 6 6 6 6 6 6 6 6 6 6 6 6 6 5 5 5 5 5 5 4 4 4 4 4 4 4 3 3 3 3 3 2 2 2 2 2 1 1 1 1 1 1 0 0 0 0
10 11 11 11 11 11 11 10 10 10 9 9 8 8 8 7 7 7 6 6 6 6 6 6 6 6 6 6 6 6 6 6 6 6 5 5 5 5 5 5 5 4 4 4 4 4 4 4 3 3 3 3 3 2 2 2 2 2 1 1 1 1 1 0 0 0 0 -0 -0
10 10 10 10 10 10 10 10 9 9 9 8 8 7 7 7 6 6 6 6 6 6 6 6 6 6 6 6 6 6 5 5 5 5 5 5 5 5 5 5 4 4 4 4 4 4 3 3 3 3 3 3 2 2 2 2 1 1 1 1 1 1 0 0 0 -0 -0 -0 -0
10 10 10 10 10 10 9 9 9 8 8 8 7 7 7 6 6 6 6 6 6 6 6 6 6 5 5 5 5 5 5 5 5 5 5 5 5 5 5 4 4 4 4 4 3 3 3 3 3 3 3 2 2 2 2 2 1 1 1 1 0 0 0 -0 -0 -0 -0 -1 -1
9 9 9 9 9 9 9 9 8 8 8 7 7 6 6 6 6 6 6 6 6 6 6 6 5 5 5 5 5 5 5 5 5 5 5 5 5 4 4 4 4 4 4 4 3 3 3 3 3 2 2 2 2 2 2 1 1 1 1 0 0 0 -0 -0 -0 -1 -1 -1 -1
9 9 9 9 9 9 9 8 8 7 7 7 6 6 6 6 6 6 6 6 6 6 5 5 5 5 5 5 5 5 5 5 5 5 5 5 4 4 4 4 4 4 4 3 3 3 3 2 2 2 2 2 2 2 1 1 1 1 0 0 0 0 -0 -0 -1 -1 -1 -1 -1
8 8 9 9 9 9 8 8 8 7 7 6 6 6 6 5 5 5 6 6 6 6 5 5 5 5 5 5 5 5 5 5 5 5 5 4 4 4 4 4 4 4 4 3 3 3 3 2 2 2 2 2 1 1 1 1 1 1 0 0 0 -0 -0 -1 -1 -1 -1 -1 -1
8 8 8 9 9 9 8 8 7 7 6 6 6 5 5 5 5 5 5 5 5 5 5 5 5 5 5 5 5 5 5 5 5 4 4 4 4 4 4 4 4 4 3 3 3 3 2 2 2 2 2 1 1 1 1 1 1 0 0 0 -0 -0 -0 -1 -1 -1 -1 -1 -1
8 8 8 9 8 8 8 7 7 6 6 6 5 5 5 5 5 5 5 5 5 5 5 5 5 5 5 5 5 5 4 4 4 4 4 4 4 4 4 4 4 3 3 3 3 2 2 2 2 2 1 1 1 1 1 1 0 0 0 -0 -0 -0 -1 -1 -1 -1 -1 -1 -1
8 8 8 8 8 8 7 6 6 6 5 5 5 5 5 5 5 5 5 5 5 5 5 5 5 5 5 4 4 4 4 4 4 4 4 4 4 4 4 4 3 3 3 3 2 2 2 2 2 1 1 1 1 1 1 0 0 0 0 -0 -0 -0 -1 -1 -1 -1 -1 -1 -1
8 8 8 8 7 7 6 6 6 5 5 5 5 5 5 5 5 5 5 4 4 5 5 5 5 5 4 4 4 4 4 4 4 4 4 4 4 4 4 3 3 3 3 2 2 2 2 2 1 1 1 1 1 1 0 0 0 0 -0 -0 -0 -1 -1 -1 -1 -1 -1 -2 -2
7 7 7 7 7 6 6 5 5 5 5 5 5 5 5 5 5 4 4 4 4 5 5 5 4 4 4 4 4 4 4 4 4 3 3 3 3 3 3 3 3 3 2 2 2 2 2 2 1 1 1 1 1 0 0 0 0 0 -0 -0 -1 -1 -1 -1 -1 -1 -2 -2 -2
7 7 6 6 6 6 5 5 5 5 5 5 4 4 4 4 4 4 4 4 4 5 5 4 4 4 4 4 4 4 4 4 3 3 3 3 3 3 3 3 3 2 2 2 2 2 2 1 1 1 1 1 0 0 0 0 0 -0 -0 -0 -1 -1 -1 -1 -1 -2 -2 -2 -2
6 6 6 6 5 5 5 5 5 5 4 4 4 4 4 4 4 4 4 4 4 4 4 4 4 4 4 4 4 4 4 4 3 3 3 3 3 3 3 2 2 2 2 2 2 2 1 0 0 1 1 0 0 0 0 0 -0 -0 -0 -1 -1 -1 -1 -1 -2 -2 -2 -2 -2
6 5 5 5 5 5 5 5 5 4 4 4 4 4 4 4 4 4 4 4 4 4 4 4 4 4 4 4 4 4 4 3 3 3 3 3 3 3 2 2 2 2 2 2 2 1 1 0 0 0 1 0 0 0 0 -0 -0 -0 -1 -1 -1 -1 -1 -2 -2 -2 -2 -2 -2
5 5 5 5 5 5 5 4 4 4 4 4 4 4 4 4 4 4 4 4 4 4 4 4 4 3 3 3 3 3 3 3 3 3 3 3 3 2 2 2 2 2 1 1 1 1 0 0 0 0 0 0 0 0 -0 -0 -0 -1 -1 -1 -1 -1 -2 -2 -2 -2 -2 -2 -2
5 5 5 5 5 4 4 4 4 4 4 4 4 4 4 4 4 4 4 4 4 4 4 4 3 3 3 3 3 3 3 3 3 3 3 3 2 2 2 2 1 1 1 1 1 0 -0 -0 -0 0 0 0 0 -0 -0 -0 -1 -1 -1 -1 -1 -1 -2 -2 -2 -2 -2 -2 -2
4 4 4 4 4 4 4 4 4 4 4 4 4 4 4 4 4 4 4 4 4 4 4 3 3 3 3 3 3 3 3 3 3 3 2 2 2 2 1 1 1 1 1 1 0 0 -0 -0 -0 -0 -0 -0 -0 -0 -0 -1 -1 -1 -1 -1 -1 -2 -2 -2 -2 -2 -2 -2 -2
4 4 4 4 4 4 4 4 4 4 4 4 4 4 4 4 4 4 4 4 4 3 3 3 3 3 3 3 3 3 3 3 2 2 2 2 2 1 1 1 1 1 0 0 0 -0 -1 -1 -1 -0 -0 -0 -0 -0 -1 -1 -1 -1 -1 -2 -2 -2 -2 -2 -2 -2 -2 -2 -2
4 4 4 4 4 4 4 4 4 4 4 4 4 4 4 4 3 3 3 4 3 3 3 3 3 3 3 3 3 3 2 2 2 2 2 1 1 1 1 0 0 0 0 0 -0 -1 -1 -1 -1 -1 -1 -1 -1 -1 -1 -1 -1 -1 -2 -2 -2 -2 -2 -2 -2 -2 -2 -2 -2
4 4 4 4 4 3 3 3 3 3 3 4 4 4 4 3 3 3 3 3 3 3 3 3 3 3 3 3 2 2 2 2 2 1 1 1 1 1 0 0 -0 -0 -0 -0 -1 -1 -1 -1 -1 -1 -1 -1 -1 -1 -1 -1 -2 -2 -2 -2 -2 -2 -2 -2 -2 -2 -2 -2 -2
4 4 4 4 3 3 3 3 3 3 3 3 3 4 3 3 3 3 3 3 3 3 3 3 3 3 3 2 2 2 2 1 1 1 1 1 0 0 -0 -0 -0 -1 -1 -1 -1 -1 -1 -1 -1 -1 -1 -1 -1 -1 -1 -2 -2 -2 -2 -2 -2 -2 -2 -2 -2 -2 -2 -2 -2
4 4 4 3 3 3 3 3 3 3 3 3 3 3 3 3 3 3 3 3 3 3 3 3 3 3 2 2 2 2 1 1 1 0 0 0 0 -0 -0 -1 -1 -1 -1 -1 -1 -2 -2 -2 -2 -1 -1 -1 -1 -2 -2 -2 -2 -2 -2 -2 -2 -2 -2 -2 -2 -2 -2 -2 -2
4 4 3 3 3 3 3 3 3 3 3 3 3 3 3 3 3 3 3 3 3 3 3 3 2 2 2 2 2 1 1 1 0 0 -0 -0 -0 -0 -1 -1 -1 -1 -1 -2 -2 -2 -2 -2 -2 -2 -2 -2 -2 -2 -2 -2 -2 -2 -2 -2 -2 -2 -2 -2 -2 -2 -2 -2 -3
4 4 3 3 3 3 3 3 3 3 3 3 3 3 3 3 3 3 3 2 2 2 2 2 2 2 2 1 1 1 1 0 0 -0 -0 -0 -1 -1 -1 -1 -1 -1 -2 -2 -2 -2 -2 -2 -2 -2 -2 -2 -2 -2 -2 -2 -2 -2 -2 -2 -2 -2 -2 -2 -2 -2 -2 -3 -3
4 4 3 3 3 3 3 3 3 3 3 3 3 3 3 3 3 2 2 2 2 2 2 2 2 2 1 1 1 0 0 0 -0 -0 -1 -1 -1 -1 -1 -1 -2 -2 -2 -2 -2 -2 -2 -2 -2 -2 -2 -2 -2 -2 -2 -2 -2 -2 -2 -2 -2 -2 -2 -2 -2 -3 -3 -3 -3
4 4 3 3 3 3 3 3 3 3 3 3 3 3 3 3 2 2 2 2 2 2 2 2 2 1 1 1 1 0 -0 -0 -0 -1 -1 -1 -1 -2 -2 -2 -2 -2 -2 -2 -2 -3 -3 -3 -2 -2 -2 -2 -2 -2 -2 -2 -2 -2 -2 -2 -3 -3 -3 -2 -3 -3 -3 -3 -3
4 4 4 3 3 3 3 3 3 3 3 3 3 3 2 2 2 2 2 2 2 2 2 1 1 1 1 1 0 0 -0 -1 -1 -1 -1 -2 -2 -2 -2 -2 -2 -2 -3 -3 -3 -3 -3 -3 -3 -2 -2 -2 -2 -2 -2 -2 -2 -2 -2 -2 -3 -2 -2 -2 -3 -3 -3 -3 -3
3 3 3 3 3 3 3 3 3 3 3 3 2 2 2 2 2 2 2 2 2 1 1 1 1 1 1 0 0 -0 -0 -1 -1 -1 -2 -2 -2 -2 -2 -3 -3 -3 -3 -3 -3 -3 -3 -3 -3 -3 -2 -2 -2 -2 -2 -2 -2 -2 -2 -2 -2 -2 -2 -3 -3 -3 -3 -3 -3
3 3 3 3 3 3 3 3 3 2 2 2 2 2 2 2 2 2 2 1 1 1 1 1 1 0 0 0 0 -0 -0 -1 -1 -2 -2 -2 -2 -2 -3 -3 -3 -3 -3 -3 -3 -3 -3 -3 -3 -3 -3 -2 -2 -2 -2 -2 -2 -2 -2 -2 -2 -2 -3 -3 -3 -3 -3 -3 -3
Height
764 766 767 769 771 773 774 776 778 779 781 782 784 786 788 789 791 793 794 796 798 799 801 802 803 804 805 806 806 807 807 807 808 808 808 809 809 809 809 810 810 810 810 810 810 810 810 810 810 809 809 809 809 809 808 808 808 808 807 807 806 806 806 805 805 804 804 803 803
764 765 767 769 771 773 774 776 778 779 781 783 784 786 788 789 790 792 794 796 798 799 800 802 803 804 804 805 806 806 807 807 807 808 808 808 808 809 809 809 810 810 810 810 810 810 810 809 809 809 809 809 808 808 808 808 808 807 807 806 806 805 805 804 804 804 803 803 803
764 765 767 768 770 772 774 776 778 780 781 783 785 786 788 789 790 792 794 796 798 799 800 801 803 803 804 805 805 806 806 807 807 807 808 808 808 808 809 809 809 809 809 809 809 809 809 809 809 809 808 808 808 808 808 807 807 806 806 806 805 805 804 804 803 803 803 802 802
764 765 767 768 770 772 773 775 778 779 781 783 785 786 788 789 790 792 794 796 798 799 800 801 802 803 804 804 805 805 806 806 807 807 807 807 808 808 808 809 809 809 809 809 809 809 808 808 808 808 808 808 808 808 807 807 806 806 805 805 804 804 803 803 803 802 802 801 801
764 765 767 768 770 772 773 775 777 779 781 783 784 786 787 789 790 792 794 796 798 799 800 801 802 803 803 804 804 805 805 806 806 806 807 807 808 808 808 808 808 808 808 808 808 808 808 808 808 808 808 808 807 807 806 806 805 805 804 804 804 803 803 803 802 802 801 801 800
764 765 767 768 770 772 774 776 778 779 781 782 784 785 787 789 790 792 794 796 797 798 800 801 801 802 803 803 804 804 805 805 806 806 806 807 807 807 808 808 808 808 808 808 808 808 808 808 807 807 807 807 807 806 806 805 805 804 804 803 803 803 802 802 801 801 800 800 799
763 765 767 768 770 772 774 776 778 779 781 782 783 785 786 788 790 792 794 795 797 798 799 800 801 802 802 803 803 804 804 805 805 805 806 806 807 807 807 807 807 807 807 807 807 807 807 807 807 807 807 806 806 805 805 804 804 803 803 803 803 802 802 801 801 800 799 799 798
764 765 767 769 771 773 774 776 778 779 781 782 783 785 786 788 790 792 793 795 796 798 799 800 801 801 802 803 803 803 804 804 805 805 805 806 806 806 807 807 807 807 807 807 807 807 807 806 806 806 806 805 805 805 804 803 803 803 803 802 802 801 801 800 800 799 798 798 797
764 766 768 769 771 773 775 776 778 779 780 782 784 785 787 788 790 792 793 795 796 798 798 799 800 801 802 802 803 803 803 804 804 805 805 805 806 806 806 806 806 806 806 806 806 806 806 806 806 805 805 805 804 804 803 803 803 802 802 801 801 800 800 799 799 798 797 797 796
764 766 768 770 772 773 775 777 778 779 781 782 784 786 788 789 790 792 793 794 796 797 798 799 800 801 801 802 802 803 803 803 804 804 805 805 805 805 805 805 805 805 805 805 805 805 805 805 805 805 804 804 803 803 803 802 802 801 801 800 800 799 799 798 798 797 796 795 794
764 766 768 770 772 773 775 777 778 780 781 783 784 786 788 789 791 792 793 794 796 797 798 799 800 800 801 801 802 802 803 803 803 804 804 804 804 805 805 805 805 805 805 805 805 805 805 804 804 804 804 803 803 802 802 801 801 800 800 799 799 798 798 797 797 796 795 794 793
764 766 768 770 772 773 775 777 778 780 782 783 785 786 788 789 791 792 793 794 796 797 798 799 799 800 800 801 801 802 802 803 803 803 804 804 804 804 804 804 804 804 804 804 804 804 804 804 803 803 803 803 802 802 801 800 800 799 799 798 798 797 796 796 795 794 793 793 792
764 766 768 770 772 773 775 777 778 780 782 783 785 787 788 790 791 792 793 794 795 797 798 798 799 800 800 800 801 801 802 802 803 803 803 803 803 803 803 803 803 803 803 803 803 803 803 803 803 803 802 802 801 801 800 799 799 798 798 797 797 796 795 794 794 793 792 791 791
764 766 768 770 772 773 775 777 778 780 782 783 785 787 788 790 791 793 793 794 795 796 797 798 799 799 800 800 801 801 801 802 802 803 803 803 803 803 803 803 803 803 803 803 803 803 802 802 802 802 801 801 800 800 799 798 798 797 797 796 795 795 794 793 793 792 791 790 789
765 767 768 770 772 773 775 777 778 780 782 784 785 787 788 790 791 793 793 794 795 796 797 798 798 799 799 800 800 801 801 802 802 802 802 802 802 803 803 803 802 802 802 802 802 802 802 801 801 801 800 800 799 799 798 798 797 796 796 795 794 793 793 792 791 790 790 789 788
765 767 768 770 772 773 775 777 778 780 782 784 785 787 788 790 791 793 793 794 795 796 797 797 798 798 799 799 800 800 801 801 801 801 802 802 802 802 802 802 802 802 801 801 801 801 801 801 800 800 799 799 798 798 797 797 796 795 795 794 793 793 792 791 790 789 788 788 787
765 767 769 770 772 773 775 777 778 780 782 784 785 787 788 790 791 793 793 794 795 795 796 797 797 798 798 799 800 800 800 801 801 801 801 801 801 801 801 801 801 801 801 801 800 800 800 800 799 799 798 798 797 797 796 796 795 794 794 793 792 792 791 790 789 788 788 787 786
765 767 769 770 772 773 775 777 778 780 782 784 786 787 788 790 791 792 793 794 794 795 796 796 797 798 798 799 799 800 800 800 800 800 801 801 801 801 801 800 800 800 800 800 800 800 799 799 798 798 798 797 796 796 795 794 794 793 793 792 791 790 789 789 788 787 787 786 785
765 767 769 771 772 773 775 777 778 780 782 784 786 787 788 790 791 792 793 793 794 795 795 796 797 798 798 799 799 799 799 800 800 800 800 800 800 800 800 800 799 799 799 799 799 799 798 798 798 797 797 796 795 795 794 793 793 792 792 791 790 789 788 788 787 786 785 785 784
766 767 769 771 772 774 776 777 779 781 783 784 786 787 788 790 790 791 792 793 794 795 795 796 797 797 798 798 799 799 799 799 799 799 799 799 799 799 799 799 799 799 799 798 798 798 798 797 797 796 796 795 794 794 793 793 792 791 790 789 789 788 787 786 786 785 784 784 783
766 768 769 771 773 774 776 778 779 781 783 784 786 787 788 789 790 791 792 793 794 795 795 796 797 797 798 798 798 798 798 799 799 799 799 799 799 799 798 798 798 798 798 798 798 797 797 796 796 795 794 794 793 793 792 791 791 790 789 788 788 787 786 785 785 784 783 783 782
767 768 770 772 773 775 777 778 780 782 783 785 786 787 788 789 790 791 792 793 794 794 795 796 796 797 797 798 798 798 798 798 798 798 798 798 798 798 798 798 798 798 797 797 797 796 796 795 794 794 793 793 792 792 791 790 789 788 788 787 786 785 785 784 783 783 782 782 781
767 769 771 772 774 775 777 779 780 782 783 785 786 787 788 789 790 791 792 793 793 794 795 796 796 797 797 797 797 798 798 798 798 798 798 798 798 798 797 797 797 797 797 796 796 795 794 794 793 793 792 792 791 790 790 789 788 787 787 786 785 784 784 783 783 782 781 781 780
768 770 771 773 774 776 778 779 781 782 783 784 786 787 788 789 790 791 792 793 793 794 795 795 796 796 797 797 797 797 797 797 797 797 797 797 797 797 797 797 797 796 796 795 795 794 793 793 792 792 791 791 790 789 788 788 787 786 785 784 784 783 783 782 781 781 780 779 778
768 770 772 773 775 777 778 779 781 782 783 784 785 787 788 789 790 791 792 793 793 794 795 795 796 796 796 797 797 797 797 797 797 797 797 796 796 796 796 796 796 795 795 794 794 793 793 792 792 791 790 790 789 788 788 787 786 785 784 783 783 782 781 781 780 779 779 778 777
769 771 773 774 775 777 778 779 781 782 783 784 785 787 788 789 790 791 792 793 793 794 794 795 795 796 796 796 796 797 797 797 796 796 796 796 796 796 795 795 795 794 794 793 793 792 792 791 791 791 790 789 788 787 786 785 785 784 783 783 782 781 780 779 778 778 777 777 776
770 772 773 775 776 777 778 780 781 782 783 784 786 787 788 789 790 791 792 793 793 794 794 795 795 795 796 796 796 796 796 796 796 796 795 795 795 795 795 794 794 793 793 792 792 791 791 790 790 789 789 788 787 786 785 784 783 783 782 782 781 780 779 778 778 777 776 775 774
771 773 774 775 776 778 779 780 781 782 783 785 786 787 788 789 790 791 792 793 793 794 794 795 795 795 795 796 796 796 795 795 795 795 795 795 794 794 794 793 793 792 792 791 790 790 790 789 789 788 788 787 786 785 784 783 783 782 781 781 780 779 778 778 777 775 774 773 773
772 773 774 776 777 778 779 781 782 783 784 785 786 787 788 789 790 791 792 793 793 793 794 794 795 795 795 795 795 795 795 795 795 795 794 794 794 793 793 792 792 791 791 790 789 789 789 788 788 787 786 786 785 784 783 782 782 781 780 779 779 778 777 776 775 774 773 772 771
772 773 775 776 777 778 780 781 782 783 784 785 787 788 788 789 790 791 792 793 793 793 794 794 794 795 795 794 794 794 794 794 794 794 794 793 793 793 792 791 791 790 790 789 788 788 788 787 787 786 785 784 784 783 782 781 781 780 779 778 778 777 776 775 774 773 772 771 770
773 774 775 776 778 779 780 782 783 784 785 786 787 788 789 789 790 791 792 792 793 793 794 794 794 794 794 794 794 794 794 794 793 793 793 793 792 792 791 791 790 789 788 788 788 787 787 786 785 785 784 783 783 782 781 780 779 779 778 777 777 776 775 774 773 772 771 770 769
773 775 776 777 778 779 781 782 783 784 785 786 787 788 789 790 790 791 792 792 793 793 793 794 794 794 794 793 793 793 793 793 793 793 792 792 791 791 790 790 789 788 788 787 787 786 786 785 784 784 783 783 782 781 780 779 778 778 777 776 776 775 774 773 772 771 769 768 768
774 775 776 777 779 780 781 783 783 784 785 786 787 788 789 790 790 791 792 792 793 793 793 793 793 793 793 793 793 793 793 793 792 792 792 791 790 790 789 789 788 788 787 786 786 785 784 784 783 783 782 782 781 780 779 778 778 777 776 775 774 773 773 772 771 769 768 767 766
775 776 777 778 779 780 782 783 784 785 786 787 788 788 789 790 790 791 792 792 793 793 793 793 793 793 793 793 793 793 793 792 792 791 791 790 790 789 788 788 787 787 786 785 785 784 783 783 783 782 781 780 779 779 778 777 776 775 775 774 773 772 771 770 769 768 767 765 764
775 776 777 778 780 781 782 783 784 785 786 787 788 788 789 790 790 791 792 792 792 793 792 792 793 793 793 793 792 792 792 791 791 791 790 789 789 788 788 787 787 786 785 784 784 783 783 782 782 781 780 779 778 778 777 776 775 774 773 773 772 771 770 769 768 766 765 764 763
776 777 778 779 780 781 782 783 784 785 786 787 788 788 789 790 791 791 792 792 792 792 792 792 792 792 792 792 792 792 791 791 790 790 789 789 788 788 787 786 786 785 784 783 783 782 782 781 781 780 779 778 777 776 775 775 774 773 772 771 770 769 768 767 766 765 763 763 762
776 777 778 779 780 782 783 783 784 785 786 787 788 788 789 790 791 791 791 792 792 792 792 792 792 792 792 792 791 791 790 790 790 789 788 788 787 787 786 785 785 784 783 783 782 782 781 780 780 779 778 777 776 775 774 773 772 771 771 770 769 768 767 766 764 763 762 761 761
777 778 778 779 781 782 783 784 785 785 786 787 788 789 789 790 791 791 791 791 791 791 792 792 792 792 791 791 791 790 790 789 789 788 788 787 787 786 785 784 784 783 783 782 781 781 780 779 779 778 778 776 775 774 773 772 771 770 769 768 768 767 765 764 763 762 761 760 760
778 778 779 780 781 782 783 784 785 786 787 787 788 789 789 790 790 791 791 791 791 791 791 791 791 791 791 791 790 790 789 789 788 788 787 787 786 785 785 784 783 783 782 781 781 780 779 779 778 777 777 776 774 773 772 771 770 769 768 767 766 765 764 763 762 760 760 759 758
778 779 780 780 781 782 783 784 785 786 787 788 788 789 789 790 790 790 791 791 791 791 791 791 791 791 790 790 790 789 789 788 788 787 787 786 785 785 784 783 783 782 781 781 780 779 778 778 777 777 776 775 773 773 771 770 769 768 767 766 765 763 762 761 760 760 759 758 757
778 779 780 781 782 783 783 784 785 786 787 788 788 789 789 790 790 790 791 791 791 791 791 791 790 790 790 789 789 788 788 788 787 787 786 786 785 784 784 783 782 781 781 780 779 778 778 777 776 776 775 774 773 772 771 769 768 767 766 765 764 762 761 760 759 758 758 757 755
Wind_Speed
32 33 33 34 34 33 33 33 34 34 33 32 31 29 27 25 24 22 21 20 20 20 20 18 17 16 14 13 11 10 9 8 7 6 5 3 3 2 1 1 2 3 4 4 5 6 6 7 7 7 7 7 7 7 7 7 7 7 7 7 7 7 7 6 6 6 6 7 7
32 33 33 33 34 34 33 33 33 33 32 31 29 27 25 24 23 22 22 21 21 20 20 18 17 15 14 13 11 9 8 8 7 6 4 3 2 1 0 1 2 3 4 5 5 6 6 7 7 7 7 7 7 7 7 7 8 7 7 7 7 7 7 6 7 7 7 8 8
32 32 33 33 34 33 33 33 33 32 31 29 27 26 25 24 23 23 22 21 20 20 19 19 17 15 14 13 11 10 8 7 6 5 4 3 2 1 0 1 2 3 4 5 6 6 6 7 7 7 7 7 8 7 8 8 8 8 7 7 7 7 7 7 7 8 8 8 9
31 32 33 33 33 34 35 35 34 32 30 28 27 25 25 24 23 23 22 21 20 20 19 18 17 16 14 13 12 10 9 7 6 5 4 3 2 1 1 2 3 4 4 5 6 6 7 7 7 7 8 8 8 8 8 8 8 7 7 7 7 7 7 7 7 8 8 9 10
31 32 33 34 34 35 35 35 33 31 29 28 27 26 25 24 24 23 23 22 21 20 19 18 17 16 14 13 11 10 9 7 6 5 4 3 2 1 1 2 3 4 5 6 6 7 7 7 7 8 8 8 8 8 8 9 8 8 7 7 7 7 7 7 8 8 9 10 10
32 33 33 34 35 35 34 33 32 30 29 28 27 26 26 25 24 24 23 22 21 20 18 17 16 15 14 12 11 10 8 7 6 4 3 2 1 0 1 2 3 4 5 6 6 7 7 8 8 8 8 8 9 9 9 9 8 8 7 7 7 7 7 7 8 9 9 10 11
32 33 34 34 35 34 34 32 31 29 29 28 27 27 26 25 25 24 23 22 21 20 19 17 16 15 14 12 11 9 8 7 6 4 3 2 1 1 2 3 4 5 5 6 7 7 7 8 8 8 9 9 9 9 9 9 9 8 8 7 7 7 7 8 8 9 10 11 12
32 33 34 34 34 34 33 31 30 29 28 27 27 26 26 25 24 24 23 22 22 20 19 17 15 14 13 12 10 9 8 7 5 4 3 1 0 1 2 3 4 5 6 6 7 7 8 8 8 9 9 9 9 9 9 9 8 8 8 8 8 8 8 8 9 10 11 12 12
32 33 33 33 33 32 31 30 29 28 28 27 26 25 25 24 24 24 23 23 21 20 18 16 15 13 12 11 10 8 7 6 5 4 2 1 1 2 3 4 5 6 6 7 7 8 8 8 9 9 9 9 9 8 8 9 8 8 9 9 9 9 9 9 10 11 12 12 13
32 32 32 32 32 31 30 29 28 27 27 27 26 25 24 24 24 23 23 22 21 19 17 16 14 13 12 10 9 8 7 6 4 3 2 1 1 2 4 5 5 6 6 7 7 8 8 9 9 9 9 9 9 8 8 9 9 9 9 10 10 11 11 11 11 12 12 13 14
33 32 32 31 31 30 29 29 28 27 27 27 26 25 24 24 24 23 22 21 20 18 17 15 13 12 11 10 9 8 6 5 4 2 1 1 2 3 4 5 6 6 7 7 8 8 9 9 9 9 9 9 8 8 8 9 9 9 9 10 11 12 12 12 12 13 13 14 15
32 32 31 31 30 29 29 28 28 27 27 27 26 25 25 24 23 22 22 20 19 18 16 14 12 11 10 9 8 7 5 4 3 1 0 1 3 4 5 6 6 7 7 8 8 9 9 9 9 9 8 8 8 8 8 9 9 10 10 11 12 12 13 13 13 13 14 15 16
32 31 30 30 29 29 29 29 28 28 28 27 26 25 25 24 23 22 21 20 19 17 15 13 12 10 9 8 7 6 5 3 2 1 1 2 3 4 5 6 6 7 7 8 9 9 9 9 9 9 9 8 8 8 8 9 10 10 11 12 13 13 13 14 14 14 15 15 16
31 31 30 30 29 29 29 29 29 29 28 27 26 25 25 23 22 21 20 19 17 16 15 14 12 10 8 7 6 5 4 2 1 1 2 3 4 5 6 6 7 7 8 8 9 9 9 9 9 9 9 8 8 9 9 9 10 11 12 12 13 13 14 14 14 15 15 16 17
30 30 30 30 30 30 30 30 30 29 28 27 26 25 24 23 21 20 18 17 16 15 14 13 12 10 8 7 5 4 3 1 1 2 3 4 4 5 6 6 7 8 8 9 9 9 9 8 8 9 9 9 9 9 10 10 10 11 12 12 13 14 14 14 14 15 16 17 18
30 30 30 31 31 31 31 31 30 29 28 27 26 25 24 22 20 19 17 16 15 14 13 12 11 9 8 6 4 3 2 1 1 2 3 4 5 6 6 7 8 8 9 9 9 9 8 8 8 8 8 9 9 10 10 11 11 12 12 13 13 14 14 14 14 15 16 17 19
30 30 31 31 31 31 31 31 30 29 28 27 26 24 23 21 20 18 16 15 15 14 13 11 10 8 7 6 4 2 1 1 2 3 4 4 5 6 7 7 8 9 10 10 9 9 8 8 8 8 8 9 9 10 11 11 12 12 13 13 14 14 14 14 14 15 16 18 19
31 31 31 31 31 31 31 31 30 29 28 27 25 23 22 20 19 17 15 14 14 13 12 11 9 7 6 5 3 2 1 2 3 4 4 5 6 7 7 8 9 10 10 10 10 9 9 8 8 8 8 8 9 10 11 11 12 13 13 14 14 14 14 14 14 15 17 18 20
32 32 31 31 31 31 31 30 30 29 27 26 24 22 21 19 18 17 16 14 12 12 11 10 9 7 5 4 2 2 2 3 4 4 5 6 7 7 8 9 10 10 10 10 10 10 10 9 9 8 8 9 9 10 11 12 13 13 14 14 14 14 14 14 15 16 17 19 20
32 32 31 31 31 31 30 30 29 28 27 25 23 22 20 19 17 16 16 14 12 10 10 9 7 6 4 3 2 2 2 3 4 5 6 6 7 8 9 9 10 10 10 10 10 10 10 10 9 9 9 9 10 11 12 13 13 14 14 15 15 15 15 15 16 17 18 19 20
32 32 31 31 31 31 30 29 28 27 26 24 22 21 20 18 17 16 15 14 12 10 9 7 6 5 4 2 2 3 3 4 5 5 6 7 7 8 9 10 10 11 11 11 11 11 10 10 9 9 9 9 10 11 12 13 14 15 15 15 15 15 15 16 16 17 19 20 21
31 31 31 31 31 31 30 29 27 26 25 23 22 21 19 18 17 15 14 12 11 9 8 6 5 4 3 2 3 3 4 4 5 5 6 7 8 9 9 10 11 11 11 11 11 11 11 11 10 9 9 10 11 12 13 14 15 15 15 16 16 16 16 16 17 18 19 20 21
32 32 31 31 31 30 29 28 27 25 24 23 21 20 19 18 16 15 13 11 10 8 7 5 4 3 3 3 3 4 4 4 5 6 6 7 8 9 10 10 11 11 11 12 12 12 12 11 11 10 11 11 12 13 14 14 15 16 16 16 16 16 17 17 18 18 19 20 21
32 32 32 31 30 30 29 27 26 25 23 22 21 19 18 17 15 14 12 10 9 7 6 4 3 3 3 3 3 4 4 4 5 6 7 7 8 9 10 10 11 12 12 13 13 12 12 11 11 11 12 12 13 14 14 15 15 16 16 16 16 17 17 18 18 19 20 20 21
33 32 32 31 30 29 28 26 25 24 23 21 20 18 17 16 14 13 11 10 8 6 5 4 3 3 3 3 3 4 4 5 5 6 7 8 8 9 10 11 11 12 13 13 13 12 11 10 10 11 12 13 13 14 14 15 15 16 16 16 16 17 18 18 19 19 20 21 21
33 32 31 30 29 28 27 26 24 23 22 20 19 18 16 15 13 11 10 9 7 6 5 4 3 3 3 3 4 4 5 5 6 7 8 8 9 10 11 11 12 13 13 13 13 12 10 10 10 11 12 13 13 14 15 15 16 16 16 16 16 17 18 19 19 20 20 21 22
32 31 30 29 28 27 26 24 23 22 21 19 18 17 15 14 12 10 9 8 7 6 5 4 3 3 3 3 4 4 5 6 7 8 8 9 10 11 11 12 13 13 14 14 13 12 11 11 11 11 12 12 13 14 15 16 16 16 16 16 17 17 18 19 20 20 21 21 22
31 30 29 28 27 26 25 23 22 21 20 18 17 16 14 13 11 10 9 8 6 5 4 4 3 3 3 3 4 5 6 7 7 8 9 10 11 11 12 13 13 14 14 14 13 11 11 11 11 12 12 12 13 14 15 16 16 16 17 17 17 18 19 19 20 20 21 22 23
30 29 28 27 26 25 24 23 22 20 19 18 16 15 13 12 10 9 8 7 6 5 4 4 3 3 3 4 5 6 6 7 8 9 10 11 11 12 12 13 13 14 14 13 12 11 11 11 12 12 12 13 13 14 15 16 16 17 17 18 18 19 19 20 20 20 21 22 23
29 28 27 27 26 24 23 22 21 19 18 17 15 14 12 11 10 9 8 7 6 5 4 3 3 3 3 4 5 6 7 8 9 10 11 11 12 12 12 13 13 14 14 13 12 11 11 12 12 13 13 13 13 14 15 16 17 17 18 19 19 19 20 20 20 21 22 23 23
28 27 27 26 25 24 22 21 19 18 17 16 14 13 12 11 10 8 7 6 5 4 4 3 3 3 4 5 6 7 8 9 10 11 11 12 12 12 13 13 13 13 14 13 12 12 12 12 13 13 14 14 14 14 15 16 17 18 19 19 19 19 19 20 20 21 22 23 24
27 27 26 25 24 23 21 20 18 17 16 15 13 12 11 10 9 7 6 5 5 4 3 3 3 4 5 6 7 8 9 10 10 11 11 12 12 13 13 13 13 13 13 13 12 12 12 13 13 14 14 14 14 15 16 17 18 18 19 19 19 19 19 20 21 22 23 24 25
27 26 25 25 24 22 20 19 17 16 15 14 12 11 10 9 8 7 6 5 4 4 3 3 4 5 6 7 8 9 9 10 10 11 11 12 12 13 13 13 13 13 13 13 12 12 13 13 14 14 15 15 15 15 16 17 18 19 19 19 19 19 19 20 21 23 24 25 26
26 25 24 24 23 21 20 18 17 15 14 13 12 10 9 8 7 6 5 4 3 3 3 4 5 6 7 8 9 9 10 10 10 11 11 12 12 13 13 12 13 13 13 13 13 13 13 14 14 15 15 15 15 16 17 18 18 19 19 19 19 19 20 21 22 24 25 26 26
25 25 24 23 22 20 19 17 16 14 13 13 12 10 9 8 7 6 5 4 4 4 4 5 6 7 8 8 9 10 10 10 10 11 11 12 12 13 13 13 13 13 13 13 13 13 14 14 15 16 16 15 16 17 18 18 19 19 19 19 19 19 20 22 23 24 25 26 25
24 24 23 22 21 19 18 17 15 14 13 12 11 10 8 7 6 5 5 4 4 5 5 6 7 7 8 9 10 10 10 11 11 11 11 12 12 13 13 13 14 14 14 14 14 14 14 15 15 16 16 16 17 18 18 19 19 19 18 18 19 20 21 22 24 24 24 23 21
23 22 22 21 20 19 17 15 14 13 13 11 10 9 8 7 6 6 5 5 5 5 6 7 7 8 9 9 10 10 10 11 11 11 11 11 12 13 13 14 15 15 15 14 14 14 14 15 16 16 16 16 17 18 19 19 18 18 18 18 19 20 21 22 23 22 20 18 16
21 20 20 20 19 18 16 14 13 13 12 11 10 8 7 6 6 6 5 5 5 6 6 7 8 8 9 10 10 10 10 10 10 10 11 11 12 13 14 14 15 15 15 15 14 14 14 15 16 16 17 16 17 18 18 18 17 16 16 17 18 20 21 21 20 18 15 13 13
20 19 18 18 18 17 15 14 13 12 11 10 9 8 7 6 6 6 5 5 5 6 7 7 8 9 10 10 10 10 9 9 10 10 10 11 12 13 13 14 15 15 15 14 14 14 15 16 16 17 17 17 17 17 16 16 16 16 16 17 18 19 19 18 16 14 13 13 15
18 17 17 17 16 16 15 13 12 11 10 9 9 8 7 6 6 5 5 5 6 6 7 8 9 9 10 10 10 10 9 9 9 10 10 11 12 12 13 14 14 15 14 14 14 14 15 16 16 17 17 16 16 16 15 16 16 16 17 18 18 18 17 15 13 12 14 16 19
18 17 16 16 15 14 13 13 12 11 10 9 9 8 7 6 6 5 5 5 6 7 8 8 9 9 10 10 10 10 10 10 10 10 11 12 12 12 13 14 14 14 14 14 15 15 15 16 17 17 17 16 16 15 15 16 16 17 17 18 18 17 16 14 13 14 16 19 21
Wind_Direction
169 169 169 168 168 167 166 165 164 163 161 160 158 157 155 153 151 150 151 151 152 152 152 153 153 152 151 153 156 157 156 156 155 155 156 155 152 146 127 14 349 344 343 340 338 337 337 337 337 337 337 336 335 334 332 332 335 337 337 336 335 334 334 333 331 331 330 328 326
170 170 170 169 169 168 166 164 163 162 161 160 158 156 154 152 149 148 149 151 152 152 152 152 152 151 151 152 154 156 157 156 156 157 158 155 154 149 86 355 344 341 338 337 336 335 335 336 336 336 335 334 334 332 331 331 334 336 336 334 333 332 332 331 330 329 328 327 325
171 170 170 169 168 167 164 163 162 161 160 158 156 154 151 149 148 148 149 150 152 152 152 151 151 152 151 151 152 154 155 157 159 160 159 156 152 144 31 347 342 339 337 335 335 334 334 335 336 335 334 333 333 332 331 331 334 335 334 333 331 331 331 330 328 327 327 325 324
171 170 170 169 168 167 165 163 162 161 159 157 154 151 149 148 147 147 148 150 152 153 152 151 151 152 152 152 153 153 155 157 161 162 160 156 149 134 12 346 343 340 337 336 335 334 335 335 336 335 335 334 333 332 332 331 333 334 333 331 329 329 329 328 327 326 325 324 323
171 171 171 171 170 169 167 164 162 160 158 155 152 149 148 147 147 147 149 151 152 152 152 152 151 152 153 154 154 155 155 157 161 162 159 154 146 119 357 344 341 339 337 336 336 335 336 336 336 336 336 335 333 332 332 331 332 331 329 328 327 326 326 326 325 324 323 321 320
171 171 172 171 170 168 166 163 161 159 156 153 152 150 149 148 149 149 150 150 151 151 151 152 152 152 153 155 157 157 157 158 160 161 158 150 140 74 358 347 342 339 338 336 336 336 337 337 337 336 336 336 334 333 331 331 330 328 325 325 324 324 325 325 324 323 321 320 319
171 171 171 171 170 168 165 162 160 157 155 153 152 151 150 150 151 151 151 151 150 151 152 153 154 154 155 157 159 160 160 159 159 159 157 148 127 31 354 345 341 339 337 336 336 336 337 337 337 336 336 335 333 331 329 328 326 324 323 323 322 324 325 325 324 322 320 319 318
172 171 171 170 169 167 165 162 159 156 154 153 153 152 152 152 152 151 151 150 150 151 152 154 155 156 158 160 161 161 161 160 159 157 155 147 87 358 347 343 340 338 336 335 336 336 336 337 337 336 334 333 331 329 326 325 324 322 321 321 322 323 324 325 323 322 320 319 319
169 170 170 169 169 167 164 161 158 156 154 153 152 152 152 152 152 152 151 150 151 152 153 154 155 157 160 162 161 161 161 160 158 155 151 142 17 349 344 340 338 337 335 335 336 336 336 336 336 334 333 331 329 326 323 322 321 321 321 321 322 323 324 324 323 323 322 320 319
167 168 168 167 167 166 162 159 157 155 153 152 151 151 152 152 153 152 151 150 151 152 153 154 157 159 160 161 161 160 160 160 158 155 146 109 355 344 340 338 337 336 335 335 335 336 337 336 335 333 331 328 326 323 320 318 320 320 321 321 322 323 324 325 325 325 324 322 321
167 167 167 166 166 164 160 157 155 153 152 150 150 151 152 152 152 152 151 152 152 152 153 156 159 161 162 161 160 159 159 159 157 152 136 27 349 342 340 337 335 334 334 334 335 336 336 335 333 331 327 325 322 320 319 318 319 320 321 322 323 324 325 326 327 326 325 324 322
166 166 166 165 164 162 158 155 153 151 150 149 150 151 151 152 152 152 152 152 152 151 152 155 159 162 162 161 158 157 157 155 152 143 65 356 347 342 339 337 335 334 334 335 335 336 335 333 331 328 324 321 319 318 318 318 319 321 322 323 324 325 326 327 327 327 326 325 323
165 165 164 163 162 159 156 153 151 150 149 149 150 150 151 151 152 153 153 153 152 151 150 152 157 160 160 158 156 154 152 148 138 97 5 350 344 341 338 336 336 335 336 335 335 335 334 331 327 325 322 319 317 317 317 319 320 322 323 324 325 325 326 326 327 327 326 325 324
164 163 162 161 159 157 154 151 150 149 149 149 149 150 150 150 152 154 155 155 153 151 150 151 152 153 153 152 152 150 146 138 112 27 356 348 343 340 338 337 336 337 337 336 335 334 332 328 325 322 319 317 317 316 317 319 321 322 323 324 324 325 325 325 326 326 326 326 325
161 161 160 159 157 155 152 150 149 149 148 148 149 149 150 150 152 154 156 155 153 152 152 152 150 149 147 147 145 143 136 116 53 5 353 347 343 340 339 338 338 338 337 336 334 333 329 325 321 318 317 316 315 316 317 319 320 321 322 323 323 323 323 324 325 326 327 327 326
158 158 157 156 155 153 151 149 148 148 148 148 148 149 149 150 152 155 156 154 152 151 152 152 149 147 145 143 139 132 117 72 16 358 351 347 343 342 340 339 338 337 336 334 333 330 327 323 318 315 313 313 314 316 317 318 319 320 320 320 321 321 321 322 324 325 327 328 328
155 155 155 155 153 152 150 149 148 148 148 148 148 149 150 151 152 154 155 153 152 151 149 148 146 144 142 138 135 123 87 28 3 354 350 347 344 342 340 339 338 336 334 332 330 328 324 319 314 311 310 311 314 315 317 317 318 318 318 318 319 319 319 321 323 325 327 329 328
152 153 153 153 152 152 150 149 148 147 147 148 148 149 150 151 151 151 151 151 153 152 148 144 142 140 136 132 126 110 57 12 359 354 350 348 345 343 341 339 337 334 332 329 327 325 321 315 311 309 309 311 314 315 316 316 316 316 317 317 317 317 318 320 322 325 328 330 329
150 151 152 152 152 151 149 148 147 147 147 147 148 148 149 150 149 148 146 147 150 151 149 143 139 136 132 123 110 84 37 9 1 355 351 348 345 343 340 338 335 332 329 326 325 323 320 315 311 309 310 313 315 316 316 315 314 315 315 315 315 316 317 319 322 325 328 329 329
150 151 151 152 151 149 148 147 146 146 146 147 147 147 146 147 147 145 143 142 144 146 145 141 137 133 126 114 85 52 29 11 1 355 351 347 345 342 339 336 333 329 326 324 323 321 319 315 313 313 314 316 317 316 315 314 314 314 314 314 314 315 316 318 321 325 327 329 329
150 150 151 150 149 147 146 145 145 145 145 145 145 145 144 144 145 143 141 140 141 141 140 137 134 128 118 99 68 41 23 10 1 355 350 346 343 339 336 333 330 326 324 322 322 320 318 316 316 317 319 319 317 315 314 313 314 314 314 313 313 314 315 318 321 324 327 328 329
149 149 149 148 147 145 144 144 144 144 144 144 143 143 143 143 142 140 139 139 139 139 137 133 128 119 104 79 50 30 18 8 360 353 348 344 340 337 334 331 327 324 323 322 322 321 320 320 322 323 322 319 316 314 314 314 314 313 313 312 313 313 315 317 320 323 326 327 328
148 147 146 146 145 144 143 143 143 143 143 142 142 142 141 141 139 138 137 137 138 138 135 130 121 106 84 57 36 22 13 5 357 350 345 341 338 335 331 329 326 324 323 323 324 323 324 326 327 325 321 317 315 314 313 314 313 313 312 312 312 313 315 317 320 323 325 326 326
146 145 144 144 143 143 143 143 142 142 141 140 141 140 140 138 137 136 136 136 137 136 131 124 113 94 69 47 30 18 8 359 353 347 343 339 336 333 329 327 325 324 325 326 327 329 330 329 324 320 318 315 314 313 313 313 313 313 312 312 312 313 315 317 320 322 324 324 324
144 144 143 143 142 142 142 142 141 140 139 139 139 139 138 136 136 136 137 136 134 131 125 116 101 81 59 39 22 9 359 353 348 345 342 339 335 332 329 328 327 327 328 329 330 333 334 326 318 315 315 314 313 313 312 312 312 312 312 312 313 315 317 318 320 321 322 322 322
143 142 142 142 142 142 141 141 140 139 138 137 137 136 135 135 136 137 137 134 130 125 118 107 91 72 50 30 13 2 354 349 345 343 340 338 335 333 331 330 329 330 331 332 333 335 334 325 318 315 315 314 313 313 313 313 313 313 312 313 314 316 318 319 320 320 320 320 320
142 141 141 141 141 140 140 139 138 137 135 135 135 134 134 135 136 137 135 131 126 121 113 101 84 63 41 22 8 359 353 348 346 343 340 338 336 334 332 332 332 332 333 334 336 336 333 325 320 318 317 316 315 314 314 314 313 313 313 314 316 318 319 319 319 318 318 318 318
140 140 140 140 139 138 137 137 135 134 134 134 134 134 134 135 136 135 132 128 124 118 109 94 72 49 31 15 4 357 353 349 346 344 341 339 337 335 334 334 334 334 335 335 336 336 332 325 322 321 321 319 317 316 314 314 314 314 314 316 317 319 319 318 317 317 316 316 316
140 140 140 138 137 136 135 135 133 133 133 133 133 134 135 135 135 133 130 126 122 113 100 82 62 42 25 12 4 358 353 350 347 344 342 340 338 337 336 336 335 335 335 335 337 337 332 326 324 323 323 322 320 317 315 314 314 314 316 317 318 319 318 317 316 315 315 314 314
140 139 138 137 136 134 134 133 133 133 133 133 134 135 136 135 134 131 128 125 118 105 88 69 54 38 22 13 4 360 356 351 347 344 342 341 339 338 337 336 336 335 334 336 338 336 331 327 326 325 325 324 321 317 315 314 314 315 317 318 318 318 317 316 315 314 314 313 312
140 139 137 136 134 133 133 133 133 133 134 134 135 136 136 134 130 127 123 116 104 90 76 62 46 30 18 10 5 0 356 351 348 345 343 341 339 338 338 337 336 335 335 337 339 336 331 328 328 327 326 325 322 318 315 314 315 316 317 317 317 317 317 315 314 313 313 312 311
139 138 136 134 133 132 132 132 133 134 134 135 136 136 133 130 125 119 112 101 90 82 73 56 35 23 15 9 4 359 355 351 348 345 342 341 339 338 338 337 336 335 337 339 339 336 331 330 329 327 326 325 322 318 315 315 315 316 316 316 317 317 316 315 313 312 311 310 309
138 137 135 134 132 132 132 133 134 134 135 135 134 132 127 123 117 110 102 94 85 76 62 41 26 18 12 6 2 357 354 351 348 345 342 340 338 338 337 337 337 337 338 340 338 335 332 331 329 328 326 324 321 318 316 316 316 316 316 317 317 316 316 314 312 311 310 309 308
138 136 135 133 133 133 133 134 135 135 134 131 128 124 120 116 112 106 99 92 81 66 47 31 21 14 8 3 359 355 353 350 348 345 342 339 337 337 337 338 338 339 340 340 337 335 333 331 330 328 326 323 320 318 317 318 317 317 317 317 317 316 315 313 311 310 309 308 307
138 136 135 134 134 134 134 134 135 135 132 128 123 121 118 115 111 105 97 86 71 55 40 28 18 10 5 360 356 354 352 349 347 344 341 338 337 337 338 339 340 341 341 339 337 335 333 332 329 327 325 323 320 319 319 319 319 318 318 317 317 315 314 312 311 310 309 308 308
139 138 136 135 134 135 135 135 135 133 130 126 123 120 118 117 113 104 92 78 62 47 34 23 14 8 3 359 356 353 350 348 345 342 340 338 338 338 339 340 341 342 341 339 337 336 334 332 330 328 325 323 321 320 320 320 319 318 318 317 315 314 314 312 311 310 309 308 309
141 139 137 136 135 135 135 135 135 132 128 125 122 120 119 117 110 99 86 69 51 37 26 16 10 4 1 358 356 353 349 346 344 342 341 340 340 341 341 341 342 342 341 340 338 336 334 332 329 328 326 323 321 321 321 320 319 318 317 315 314 313 312 311 310 308 307 308 313
141 140 138 136 136 136 136 136 135 131 128 125 123 122 120 114 103 91 76 57 40 28 19 11 6 2 358 355 354 352 349 345 343 343 343 343 344 343 343 343 342 341 341 340 338 337 334 331 329 327 326 323 322 322 321 320 318 316 314 313 312 311 310 309 307 304 305 310 318
141 140 139 137 136 136 136 135 133 130 127 126 124 122 116 107 93 79 64 47 32 21 14 8 4 359 356 353 351 349 348 346 344 345 346 347 347 346 345 343 341 340 340 339 338 337 335 331 328 327 326 324 323 321 320 319 317 315 314 313 312 311 309 307 305 305 309 316 318
141 140 139 138 137 137 136 133 129 126 125 124 121 115 106 95 82 69 54 39 27 18 11 6 2 358 354 351 348 346 345 346 347 348 349 350 349 348 346 343 341 340 340 339 339 338 335 330 328 327 327 325 324 322 320 318 316 315 314 313 312 311 309 307 308 311 315 317 317
141 140 139 138 139 138 136 131 127 125 123 120 114 106 97 86 75 62 47 34 24 16 10 5 360 356 352 349 346 344 344 346 348 349 350 350 349 348 347 344 342 341 341 341 341 339 335 330 328 328 328 326 325 323 321 319 317 315 314 313 312 310 310 312 314 317 318 317 316